Time,TemperatureF,DewpointF,PressureIn,WindDirection,WindDirectionDegrees,WindSpeedMPH,WindSpeedGustMPH,Humidity,HourlyPrecipIn,Conditions,Clouds,dailyrainin,SoftwareType,DateUTC
2013-05-12 00:13:00,55.4,55.0,29.68,SE,143,11.0,16.0,98,0.00,,,0.00,weatherlink.com 1.10,2013-05-12 04:13:00,
2013-05-12 00:28:00,54.6,54.0,29.68,SE,134,7.0,13.0,98,0.00,,,0.00,weatherlink.com 1.10,2013-05-12 04:28:00,
2013-05-12 00:43:00,54.3,54.0,29.68,SE,145,7.0,12.0,98,0.00,,,0.00,weatherlink.com 1.10,2013-05-12 04:43:00,
2013-05-12 00:58:00,54.0,54.0,29.67,SSE,153,5.0,9.0,98,0.00,,,0.00,weatherlink.com 1.10,2013-05-12 04:58:00,
2013-05-12 01:13:00,54.0,54.0,29.67,SE,144,6.0,9.0,99,0.00,,,0.00,weatherlink.com 1.10,2013-05-12 05:13:00,
2013-05-12 01:28:00,54.0,54.0,29.66,SE,134,7.0,8.0,99,0.00,,,0.00,weatherlink.com 1.10,2013-05-12 05:28:00,
2013-05-12 01:43:00,54.2,54.0,29.66,SE,131,7.0,10.0,99,0.00,,,0.00,weatherlink.com 1.10,2013-05-12 05:43:00,
2013-05-12 01:58:00,54.3,54.0,29.66,SE,135,6.0,10.0,99,0.00,,,0.00,weatherlink.com 1.10,2013-05-12 05:58:00,
2013-05-12 02:13:00,54.5,54.0,29.66,SE,137,5.0,8.0,99,0.00,,,0.00,weatherlink.com 1.10,2013-05-12 06:13:00,
2013-05-12 02:29:00,54.9,55.0,29.65,SE,146,5.0,7.0,99,0.00,,,0.00,weatherlink.com 1.10,2013-05-12 06:29:00,
2013-05-12 02:43:00,54.3,54.0,29.64,SE,132,4.0,6.0,99,0.00,,,0.00,weatherlink.com 1.10,2013-05-12 06:43:00,
2013-05-12 02:58:00,53.8,54.0,29.65,SE,133,9.0,11.0,99,0.00,,,0.00,weatherlink.com 1.10,2013-05-12 06:58:00,
2013-05-12 03:13:00,53.4,53.0,29.64,SE,136,8.0,12.0,99,0.00,,,0.00,weatherlink.com 1.10,2013-05-12 07:13:00,
2013-05-12 03:28:00,53.3,53.0,29.64,SE,140,4.0,7.0,99,0.00,,,0.00,weatherlink.com 1.10,2013-05-12 07:28:00,
2013-05-12 03:43:00,52.9,53.0,29.63,SSE,158,2.0,6.0,99,0.00,,,0.00,weatherlink.com 1.10,2013-05-12 07:43:00,
2013-05-12 03:58:00,53.0,53.0,29.63,SE,139,3.0,5.0,99,0.00,,,0.00,weatherlink.com 1.10,2013-05-12 07:58:00,
2013-05-12 04:13:00,53.0,53.0,29.63,South,179,0.0,3.0,99,0.00,,,0.00,weatherlink.com 1.10,2013-05-12 08:13:00,
2013-05-12 04:28:00,52.7,53.0,29.63,SSE,158,1.0,5.0,99,0.00,,,0.00,weatherlink.com 1.10,2013-05-12 08:28:00,
2013-05-12 04:43:00,52.7,53.0,29.62,South,176,0.0,1.0,99,0.00,,,0.00,weatherlink.com 1.10,2013-05-12 08:43:00,
2013-05-12 04:58:00,52.8,53.0,29.62,SSW,194,0.0,1.0,99,0.00,,,0.00,weatherlink.com 1.10,2013-05-12 08:58:00,
2013-05-12 05:13:00,53.0,53.0,29.64,SSW,194,0.0,1.0,99,0.00,,,0.00,weatherlink.com 1.10,2013-05-12 09:13:00,
2013-05-12 05:28:00,53.1,53.0,29.64,SSW,194,0.0,1.0,99,0.00,,,0.00,weatherlink.com 1.10,2013-05-12 09:28:00,
2013-05-12 05:43:00,53.5,53.0,29.63,SSW,194,0.0,1.0,99,0.00,,,0.00,weatherlink.com 1.10,2013-05-12 09:43:00,
2013-05-12 05:58:00,53.6,53.0,29.64,SSW,211,1.0,1.0,99,0.00,,,0.00,weatherlink.com 1.10,2013-05-12 09:58:00,
2013-05-12 06:13:00,53.8,54.0,29.63,SSW,211,0.0,1.0,99,0.00,,,0.00,weatherlink.com 1.10,2013-05-12 10:13:00,
2013-05-12 06:28:00,53.7,54.0,29.65,SSE,165,1.0,3.0,99,0.00,,,0.00,weatherlink.com 1.10,2013-05-12 10:28:00,
2013-05-12 06:43:00,53.7,54.0,29.64,NNE,25,2.0,3.0,99,0.00,,,0.00,weatherlink.com 1.10,2013-05-12 10:43:00,
2013-05-12 06:59:00,53.8,54.0,29.65,SE,139,3.0,4.0,99,0.00,,,0.00,weatherlink.com 1.10,2013-05-12 10:59:00,
2013-05-12 07:13:00,52.9,53.0,29.66,SSE,148,8.0,11.0,99,0.01,,,0.01,weatherlink.com 1.10,2013-05-12 11:13:00,
2013-05-12 07:29:00,52.3,52.0,29.65,SSE,155,3.0,10.0,99,0.01,,,0.01,weatherlink.com 1.10,2013-05-12 11:29:00,
2013-05-12 07:44:00,52.3,52.0,29.64,SE,137,7.0,11.0,99,0.01,,,0.01,weatherlink.com 1.10,2013-05-12 11:44:00,
2013-05-12 07:59:00,52.2,52.0,29.63,SE,138,5.0,10.0,99,0.01,,,0.01,weatherlink.com 1.10,2013-05-12 11:59:00,
2013-05-12 08:14:00,51.9,52.0,29.62,SSE,160,0.0,6.0,99,0.00,,,0.01,weatherlink.com 1.10,2013-05-12 12:14:00,
2013-05-12 08:29:00,52.1,52.0,29.60,SSE,162,0.0,1.0,99,0.00,,,0.01,weatherlink.com 1.10,2013-05-12 12:29:00,
2013-05-12 08:44:00,52.8,53.0,29.61,SSE,153,2.0,3.0,99,0.00,,,0.01,weatherlink.com 1.10,2013-05-12 12:44:00,
2013-05-12 08:59:00,52.9,53.0,29.61,SE,138,5.0,5.0,99,0.00,,,0.01,weatherlink.com 1.10,2013-05-12 12:59:00,
2013-05-12 09:14:00,52.9,53.0,29.61,SE,141,5.0,8.0,99,0.00,,,0.01,weatherlink.com 1.10,2013-05-12 13:14:00,
2013-05-12 09:29:00,52.9,53.0,29.61,SE,139,6.0,8.0,99,0.00,,,0.01,weatherlink.com 1.10,2013-05-12 13:29:00,
2013-05-12 09:44:00,53.0,53.0,29.60,SSE,152,5.0,7.0,99,0.02,,,0.03,weatherlink.com 1.10,2013-05-12 13:44:00,
2013-05-12 09:59:00,52.7,53.0,29.61,SE,146,5.0,8.0,99,0.04,,,0.05,weatherlink.com 1.10,2013-05-12 13:59:00,
2013-05-12 10:14:00,52.6,52.0,29.60,SE,134,5.0,9.0,99,0.05,,,0.06,weatherlink.com 1.10,2013-05-12 14:14:00,
2013-05-12 10:29:00,52.7,53.0,29.59,SSE,148,6.0,7.0,99,0.05,,,0.07,weatherlink.com 1.10,2013-05-12 14:29:00,
2013-05-12 10:45:00,52.9,53.0,29.58,SE,134,4.0,7.0,99,0.04,,,0.07,weatherlink.com 1.10,2013-05-12 14:45:00,
2013-05-12 10:59:00,53.2,53.0,29.57,SE,145,3.0,6.0,99,0.02,,,0.07,weatherlink.com 1.10,2013-05-12 14:59:00,
2013-05-12 11:14:00,52.8,53.0,29.59,SSE,148,6.0,9.0,99,0.02,,,0.08,weatherlink.com 1.10,2013-05-12 15:14:00,
2013-05-12 11:29:00,52.3,52.0,29.58,SE,135,6.0,7.0,99,0.02,,,0.09,weatherlink.com 1.10,2013-05-12 15:29:00,
2013-05-12 11:44:00,52.4,52.0,29.57,SSE,157,2.0,7.0,99,0.04,,,0.11,weatherlink.com 1.10,2013-05-12 15:44:00,
2013-05-12 11:59:00,53.3,53.0,29.56,SSE,153,2.0,4.0,99,0.04,,,0.11,weatherlink.com 1.10,2013-05-12 15:59:00,
2013-05-12 12:14:00,53.2,53.0,29.56,ENE,64,4.0,7.0,99,0.04,,,0.12,weatherlink.com 1.10,2013-05-12 16:14:00,
2013-05-12 12:29:00,53.1,53.0,29.56,SSE,148,2.0,4.0,99,0.05,,,0.14,weatherlink.com 1.10,2013-05-12 16:29:00,
2013-05-12 12:44:00,52.4,52.0,29.56,SE,136,4.0,8.0,99,0.03,,,0.14,weatherlink.com 1.10,2013-05-12 16:44:00,
2013-05-12 12:59:00,52.2,52.0,29.56,SE,131,9.0,9.0,99,0.03,,,0.14,weatherlink.com 1.10,2013-05-12 16:59:00,
2013-05-12 13:14:00,52.3,52.0,29.55,SSE,148,5.0,10.0,99,0.02,,,0.14,weatherlink.com 1.10,2013-05-12 17:14:00,
2013-05-12 13:29:00,52.3,52.0,29.55,SE,127,6.0,9.0,99,0.00,,,0.14,weatherlink.com 1.10,2013-05-12 17:29:00,
2013-05-12 13:44:00,52.0,52.0,29.56,SE,139,8.0,12.0,99,0.00,,,0.14,weatherlink.com 1.10,2013-05-12 17:44:00,
2013-05-12 13:59:00,52.1,52.0,29.55,SE,145,8.0,11.0,99,0.01,,,0.15,weatherlink.com 1.10,2013-05-12 17:59:00,
2013-05-12 14:14:00,52.3,52.0,29.55,SE,139,5.0,10.0,99,0.02,,,0.16,weatherlink.com 1.10,2013-05-12 18:14:00,
2013-05-12 14:29:00,52.2,52.0,29.55,SE,138,7.0,11.0,99,0.02,,,0.16,weatherlink.com 1.10,2013-05-12 18:29:00,
2013-05-12 14:44:00,52.0,52.0,29.54,SE,141,9.0,10.0,99,0.02,,,0.16,weatherlink.com 1.10,2013-05-12 18:44:00,
2013-05-12 14:59:00,52.2,52.0,29.54,SE,138,5.0,8.0,99,0.01,,,0.16,weatherlink.com 1.10,2013-05-12 18:59:00,
2013-05-12 15:14:00,51.9,52.0,29.54,SE,134,6.0,10.0,99,0.00,,,0.16,weatherlink.com 1.10,2013-05-12 19:14:00,
2013-05-12 15:29:00,52.0,52.0,29.54,SE,135,4.0,-999.0,99,-99.99,,,0.16,weatherlink.com 1.10,2013-05-12 19:29:00,
2013-05-12 15:44:00,52.8,53.0,29.53,SSE,158,4.0,5.0,99,0.00,,,0.16,weatherlink.com 1.10,2013-05-12 19:44:00,
2013-05-12 15:59:00,53.4,53.0,29.53,SSE,150,5.0,5.0,99,0.00,,,0.16,weatherlink.com 1.10,2013-05-12 19:59:00,
2013-05-12 16:14:00,54.7,55.0,29.53,SE,143,6.0,6.0,99,0.00,,,0.16,weatherlink.com 1.10,2013-05-12 20:14:00,
2013-05-12 16:29:00,53.9,54.0,29.52,SSE,155,5.0,8.0,99,0.00,,,0.16,weatherlink.com 1.10,2013-05-12 20:29:00,
2013-05-12 16:44:00,54.4,54.0,29.53,SSE,153,5.0,8.0,99,0.00,,,0.16,weatherlink.com 1.10,2013-05-12 20:44:00,
2013-05-12 16:59:00,53.7,53.0,29.53,SE,145,7.0,9.0,98,0.00,,,0.16,weatherlink.com 1.10,2013-05-12 20:59:00,
2013-05-12 17:14:00,53.1,53.0,29.53,SE,137,5.0,7.0,98,0.00,,,0.16,weatherlink.com 1.10,2013-05-12 21:14:00,
2013-05-12 17:29:00,54.5,54.0,29.53,South,170,1.0,3.0,99,0.00,,,0.16,weatherlink.com 1.10,2013-05-12 21:29:00,
2013-05-12 17:44:00,55.2,55.0,29.53,South,184,1.0,3.0,99,0.00,,,0.16,weatherlink.com 1.10,2013-05-12 21:44:00,
2013-05-12 17:59:00,56.9,57.0,29.53,SE,141,3.0,5.0,99,0.00,,,0.16,weatherlink.com 1.10,2013-05-12 21:59:00,
2013-05-12 18:14:00,57.2,57.0,29.54,SSE,160,2.0,3.0,98,0.00,,,0.16,weatherlink.com 1.10,2013-05-12 22:14:00,
2013-05-12 18:29:00,57.2,56.0,29.55,SSE,156,2.0,3.0,97,0.00,,,0.16,weatherlink.com 1.10,2013-05-12 22:29:00,
2013-05-12 18:44:00,57.9,57.0,29.55,ESE,120,6.0,7.0,97,0.00,,,0.16,weatherlink.com 1.10,2013-05-12 22:44:00,
2013-05-12 18:59:00,57.6,56.0,29.55,SSE,167,1.0,6.0,95,0.00,,,0.16,weatherlink.com 1.10,2013-05-12 22:59:00,
2013-05-12 19:15:00,56.7,55.0,29.56,SE,145,3.0,5.0,94,0.00,,,0.16,weatherlink.com 1.10,2013-05-12 23:15:00,
2013-05-12 19:30:00,55.9,54.0,29.56,SE,124,3.0,6.0,94,0.00,,,0.16,weatherlink.com 1.10,2013-05-12 23:30:00,
2013-05-12 19:45:00,56.6,54.0,29.56,SE,129,3.0,7.0,91,0.00,,,0.16,weatherlink.com 1.10,2013-05-12 23:45:00,
2013-05-12 20:00:00,55.8,54.0,29.57,SE,132,6.0,8.0,92,0.00,,,0.16,weatherlink.com 1.10,2013-05-13 00:00:00,
2013-05-12 20:15:00,55.3,53.0,29.58,SE,139,9.0,12.0,92,0.00,,,0.16,weatherlink.com 1.10,2013-05-13 00:15:00,
2013-05-12 20:30:00,55.2,53.0,29.58,SE,135,9.0,11.0,91,0.00,,,0.16,weatherlink.com 1.10,2013-05-13 00:30:00,
2013-05-12 20:45:00,55.1,53.0,29.59,SSE,160,4.0,8.0,92,0.00,,,0.16,weatherlink.com 1.10,2013-05-13 00:45:00,
2013-05-12 21:00:00,54.8,53.0,29.61,South,174,0.0,2.0,93,0.00,,,0.16,weatherlink.com 1.10,2013-05-13 01:00:00,
2013-05-12 21:15:00,55.1,53.0,29.63,West,259,4.0,6.0,92,0.00,,,0.16,weatherlink.com 1.10,2013-05-13 01:15:00,
2013-05-12 21:30:00,54.8,50.0,29.63,WSW,257,4.0,8.0,84,0.00,,,0.16,weatherlink.com 1.10,2013-05-13 01:30:00,
2013-05-12 21:45:00,54.1,49.0,29.65,South,190,0.0,7.0,84,0.00,,,0.16,weatherlink.com 1.10,2013-05-13 01:45:00,
2013-05-12 22:00:00,53.4,49.0,29.65,WSW,240,3.0,6.0,85,0.00,,,0.16,weatherlink.com 1.10,2013-05-13 02:00:00,
2013-05-12 22:15:00,52.3,48.0,29.66,SSW,212,2.0,5.0,86,0.00,,,0.16,weatherlink.com 1.10,2013-05-13 02:15:00,
2013-05-12 22:30:00,51.6,49.0,29.68,SSW,212,0.0,2.0,89,0.00,,,0.16,weatherlink.com 1.10,2013-05-13 02:30:00,
2013-05-12 22:45:00,51.5,47.0,29.67,SSW,205,0.0,4.0,84,0.00,,,0.16,weatherlink.com 1.10,2013-05-13 02:45:00,
2013-05-12 23:00:00,50.9,46.0,29.67,SSW,211,1.0,3.0,84,0.00,,,0.16,weatherlink.com 1.10,2013-05-13 03:00:00,
2013-05-12 23:15:00,50.4,46.0,29.68,SSW,204,1.0,2.0,85,0.00,,,0.16,weatherlink.com 1.10,2013-05-13 03:15:00,
2013-05-12 23:30:00,50.3,46.0,29.68,South,190,0.0,-999.0,85,-99.99,,,0.16,weatherlink.com 1.10,2013-05-13 03:30:00,
2013-05-12 23:45:00,49.9,46.0,29.70,SSW,201,0.0,2.0,85,0.00,,,0.16,weatherlink.com 1.10,2013-05-13 03:45:00,